FW1555 Weather Reports


Display with metric or nautical units.
time (UTC)temp
F
wind
direction
speed
MPH
gust
MPH
rain 1hr
in
rain 24hr
in
rain mn
in
humidity
%
barometer
mb
20260903064600 66 0 0.0 1.0 0.01 0.38 0.22 100 1015.7
20260903063057 66 0 0.0 0.0 0.02 0.38 0.22 100 1016.0
20260903061612 66 0 0.0 0.0 0.05 0.38 0.22 100 1016.3
20260903060105 66 0 0.0 0.0 0.10 0.37 0.21 100 1016.6
20260903054559 66 0 0.0 1.0 0.14 0.37 0.21 100 1017.0
20260903053107 66 0 0.0 3.0 0.17 0.36 0.20 100 1016.7
20260903051551 66 0 0.0 0.0 0.17 0.33 0.17 100 1017.1
20260903050107 67 0 0.0 0.0 0.11 0.27 0.11 99 1018.1
20260903044548 67 0 1.0 4.0 0.07 0.23 0.07 99 1018.8
20260903043053 67 0 0.0 2.0 0.03 0.19 0.03 99 1018.3
20260903041556 67 0 0.0 0.0 0.00 0.16 0.00 99 1018.3
20260903040050 67 0 0.0 0.0 0.00 0.16 0.00 98 1018.3
20260903034557 67 0 0.0 0.0 0.00 0.16 0.16 98 1018.3
20260903033054 67 0 0.0 0.0 0.00 0.16 0.16 98 1018.4
20260903031552 67 0 0.0 0.0 0.00 0.16 0.16 98 1018.2
20260903030109 67 0 0.0 0.0 0.00 0.16 0.16 98 1018.1
20260903024553 67 0 0.0 0.0 0.00 0.16 0.16 98 1018.4
20260903023051 67 0 0.0 0.0 0.00 0.16 0.16 98 1018.2
20260903021549 67 0 0.0 0.0 0.00 0.16 0.16 98 1018.7
20260903020100 66 0 0.0 0.0 0.00 0.16 0.16 97 1018.6
20260903014609 66 0 0.0 0.0 0.00 0.16 0.16 97 1018.6
20260903013105 66 0 0.0 0.0 0.00 0.16 0.16 97 1018.9
20260903011612 66 0 0.0 0.0 0.00 0.16 0.16 97 1019.0
20260903010117 66 0 0.0 0.0 0.00 0.16 0.16 97 1019.3
20260903004554 66 0 0.0 2.0 0.00 0.19 0.16 97 1019.1
20260903003054 66 0 0.0 0.0 0.00 0.19 0.16 97 1019.6
20260903001601 66 0 0.0 0.0 0.00 0.19 0.16 97 1019.0
20260903000059 66 0 0.0 1.0 0.00 0.19 0.16 97 1018.9
20260902234559 66 0 0.0 0.0 0.00 0.19 0.16 97 1018.6
20260902233051 66 0 0.0 0.0 0.00 0.19 0.16 97 1018.7
20260902231608 66 0 0.0 2.0 0.00 0.19 0.16 97 1018.9
20260902230100 66 0 0.0 0.0 0.00 0.19 0.16 97 1018.9
20260902224606 66 0 0.0 0.0 0.00 0.19 0.16 96 1019.1
20260902223056 66 360 0.0 1.0 0.00 0.19 0.16 96 1019.6
20260902221627 66 0 0.0 1.0 0.00 0.19 0.16 96 1019.4
20260902214602 67 0 0.0 1.0 0.00 0.19 0.16 96 1019.8
20260902213053 67 0 0.0 1.0 0.00 0.19 0.16 96 1019.5
20260902211602 67 0 0.0 0.0 0.00 0.19 0.16 96 1019.4
20260902210059 67 0 0.0 0.0 0.00 0.19 0.16 96 1019.5
20260902204558 68 0 0.0 1.0 0.00 0.19 0.16 96 1019.6
20260902203055 68 0 0.0 3.0 0.00 0.19 0.16 98 1019.3
20260902201559 67 0 0.0 0.0 0.00 0.19 0.16 98 1019.5
20260902200059 67 0 0.0 0.0 0.02 0.19 0.16 98 1019.6
20260902194558 67 0 0.0 1.0 0.04 0.19 0.16 99 1019.6
20260902193105 67 0 0.0 0.0 0.11 0.19 0.16 98 1019.7
20260902191631 67 0 0.0 0.0 0.13 0.19 0.16 98 1020.1
20260902190100 66 0 0.0 0.0 0.11 0.17 0.14 97 1020.2
20260902184600 67 0 0.0 1.0 0.09 0.16 0.12 96 1020.4
20260902183122 68 0 0.0 0.0 0.01 0.08 0.04 94 1020.8
20260902181607 68 0 0.0 0.0 0.00 0.07 0.03 93 1020.4
20260902180105 68 0 0.0 0.0 0.00 0.07 0.03 92 1020.0
20260902174558 68 0 0.0 1.0 0.00 0.09 0.03 91 1020.1
20260902173105 68 0 0.0 4.0 0.00 0.09 0.03 91 1020.2
20260902171614 68 0 0.0 5.0 0.00 0.09 0.03 91 1020.1
20260902170106 68 0 0.0 3.0 0.00 0.09 0.03 93 1020.0
20260902164602 67 0 0.0 0.0 0.00 0.10 0.03 95 1020.4
20260902163103 67 0 0.0 0.0 0.00 0.10 0.03 95 1020.7
20260902161558 67 0 0.0 0.0 0.00 0.10 0.03 95 1020.6
20260902160105 66 0 0.0 0.0 0.00 0.10 0.03 96 1020.5
20260902154549 66 0 0.0 0.0 0.00 0.17 0.03 97 1020.7
20260902153053 65 0 0.0 0.0 0.00 0.17 0.03 98 1020.6
20260902151556 65 0 0.0 0.0 0.00 0.17 0.03 98 1020.8
20260902150052 65 0 0.0 0.0 0.00 0.17 0.03 98 1021.0
20260902144548 65 0 0.0 0.0 0.00 0.21 0.03 99 1020.7
20260902143101 64 0 0.0 0.0 0.00 0.21 0.03 100 1020.7
20260902141554 64 0 0.0 0.0 0.00 0.21 0.03 99 1020.8
20260902140052 63 0 0.0 0.0 0.00 0.21 0.03 100 1020.8
20260902134555 63 0 0.0 0.0 0.00 0.21 0.03 100 1020.9
20260902133105 63 0 0.0 0.0 0.00 0.21 0.03 100 1020.7
20260902131556 63 0 0.0 0.0 0.00 0.21 0.03 100 1020.3
20260902130051 63 0 0.0 0.0 0.00 0.21 0.03 100 1020.3
20260902124549 62 0 0.0 0.0 0.00 0.21 0.03 100 1020.4
20260902123053 62 0 0.0 0.0 0.00 0.21 0.03 100 1020.2
20260902121553 62 0 0.0 0.0 0.00 0.21 0.03 100 1020.1
20260902120050 63 0 0.0 0.0 0.00 0.21 0.03 100 1020.2
20260902114549 63 0 0.0 0.0 0.00 0.21 0.03 100 1020.1
20260902113049 63 0 0.0 1.0 0.00 0.21 0.03 100 1020.1
20260902111605 63 0 0.0 0.0 0.00 0.21 0.03 100 1019.9
20260902110053 63 0 0.0 0.0 0.00 0.21 0.03 100 1019.9
20260902104615 63 0 0.0 0.0 0.00 0.21 0.03 100 1019.9
20260902103059 63 0 0.0 0.0 0.00 0.21 0.03 100 1020.0
20260902101553 63 0 0.0 0.0 0.00 0.21 0.03 100 1019.6
20260902100055 63 0 0.0 0.0 0.01 0.21 0.03 99 1019.5
20260902094551 63 0 0.0 1.0 0.01 0.21 0.03 100 1019.5
20260902093105 63 0 0.0 0.0 0.01 0.21 0.03 100 1019.3
20260902091553 63 0 0.0 0.0 0.02 0.21 0.03 100 1019.4
20260902090051 64 0 0.0 0.0 0.01 0.20 0.02 100 1019.4
20260902084549 64 0 0.0 0.0 0.01 0.20 0.02 99 1019.4
20260902083058 63 0 0.0 0.0 0.01 0.20 0.02 99 1019.1
20260902081554 64 0 0.0 0.0 0.00 0.19 0.01 99 1018.8
20260902080051 64 0 0.0 0.0 0.00 0.19 0.01 99 1018.7
20260902074609 64 0 0.0 3.0 0.00 0.19 0.01 99 1018.5
20260902073102 64 0 0.0 3.0 0.00 0.19 0.01 99 1018.5
20260902071554 64 0 0.0 0.0 0.00 0.19 0.01 99 1018.3
20260902070105 64 0 0.0 0.0 0.01 0.19 0.01 99 1018.4